Location: The Jewett Observatory
(46.7288°N, 117.1525°W)
Time: 15:27:17
(UTC-07:00)

Meteor 1-28 Rocket - Visible Passes

Search period start: 02 August 2015 00:00
Search period end: 12 August 2015 00:00
Orbit: 510 x 529 km, 97.2° (Epoch: 01 August)

Date Brightness Start Highest point End Pass type
(mag) Time Alt. Az. Time Alt. Az. Time Alt. Az.
02 Aug 6.3 21:38:35 10° NNW 21:41:13 18° WNW 21:43:44 10° WSW visible
03 Aug 5.8 21:24:35 10° NNW 21:27:40 24° WNW 21:30:41 10° WSW visible
04 Aug 5.2 21:10:42 10° N 21:14:07 33° WNW 21:17:29 10° SW visible
05 Aug 4.4 20:56:54 10° N 21:00:32 46° WNW 21:04:07 10° SW visible
06 Aug 3.6 20:43:11 10° N 20:46:56 68° WNW 20:50:38 10° SSW visible
08 Aug 6.5 21:51:31 10° NNW 21:53:25 13° WNW 21:55:10 10° W visible
09 Aug 6.2 21:37:16 10° NNW 21:39:53 18° WNW 21:42:24 10° WSW visible
10 Aug 5.8 21:23:14 10° NNW 21:26:20 24° WNW 21:29:21 10° WSW visible
11 Aug 5.1 21:09:21 10° N 21:12:45 33° WNW 21:16:07 10° SW visible
